This is the latest recevied weather packets stored in our database for station/object HS5XHC-1. If no packets are shown the sender has not sent any weather packets the latest 10 day(s).
| Time | Temp. | Humidity | Pressure | Rain* | Wind** | Luminosity | Snow |
|---|---|---|---|---|---|---|---|
| 1777852961 | 27.22° C | 56% | 968 hPa | - | - | 0 W/m² | - |
| 1777852337 | 25.56° C | 60% | 968 hPa | - | - | 0 W/m² | - |
| 1777851713 | 26.11° C | 60% | 968 hPa | - | - | 0 W/m² | - |
| 1777851089 | 26.11° C | 60% | 968 hPa | - | - | 0 W/m² | - |
| 1777850466 | 26.11° C | 58% | 968 hPa | - | - | 0 W/m² | - |
| 1777849842 | 27.22° C | 55% | 968 hPa | - | - | 0 W/m² | - |
| 1777849218 | 27.22° C | 54% | 968 hPa | - | - | 0 W/m² | - |
| 1777848594 | 27.78° C | 54% | 968 hPa | - | - | 0 W/m² | - |
| 1777847970 | 27.78° C | 54% | 968 hPa | - | - | 0 W/m² | - |
| 1777847345 | 27.78° C | 54% | 968 hPa | - | - | 0 W/m² | - |
| 1777846722 | 27.22° C | 54% | 968 hPa | - | - | 0 W/m² | - |
| 1777846097 | 27.78° C | 53% | 967 hPa | - | - | 0 W/m² | - |
| 1777845474 | 27.78° C | 54% | 967 hPa | - | - | 0 W/m² | - |
| 1777844849 | 27.78° C | 53% | 967 hPa | - | - | 0 W/m² | - |
| 1777844226 | 27.78° C | 54% | 967 hPa | - | - | 0 W/m² | - |
| 1777843602 | 26.67° C | 55% | 967 hPa | - | - | 0 W/m² | - |
| 1777842978 | 27.22° C | 55% | 967 hPa | - | - | 0 W/m² | - |
| 1777842354 | 26.67° C | 57% | 967 hPa | - | - | 0 W/m² | - |
| 1777841730 | 27.22° C | 54% | 967 hPa | - | - | 0 W/m² | - |
| 1777841106 | 27.78° C | 54% | 967 hPa | - | - | 0 W/m² | - |
| 1777840481 | 26.67° C | 57% | 967 hPa | - | - | 0 W/m² | - |
| 1777839857 | 26.67° C | 57% | 967 hPa | - | - | 0 W/m² | - |
| 1777839234 | 27.22° C | 55% | 967 hPa | - | - | 0 W/m² | - |
| 1777838610 | 27.78° C | 54% | 967 hPa | - | - | 0 W/m² | - |
| 1777838341 | 27.22° C | 54% | 967 hPa | - | - | 0 W/m² | - |
* Rain since midnight (hover to see other rain measurements)
** Current wind speed in m/s (hover to see current wind gust speed)